Weather History for Chester, CT

Change the Weather History Date:

Wednesday, February 13, 2013

  Actual Average (KHVN) Record (KHVN)
Temperature  
Mean Temperature 36 °F -  
Max Temperature 41 °F 37 °F 34 °F (2014)
Min Temperature 30 °F 24 °F 23 °F (2014)
Degree Days  
Heating Degree Days 30    
Moisture  
Dew Point 23 °F    
Average Humidity 62    
Maximum Humidity 81    
Minimum Humidity 45    
Precipitation  
Precipitation 0.06 in - - ()
Sea Level Pressure  
Sea Level Pressure 29.80 in    
Wind  
Wind Speed 3 mph (WNW)    
Max Wind Speed 12 mph    
Max Gust Speed -    
Visibility 10 miles    
Events Snow    
Averages and records for this station are not official NWS values.
T = Trace of Precipitation, MM = Missing Value Source: NWS Daily Summary

Daily Weather History Graph

Daily Weather History Graph

Search for Another Location

Airport:

Trip Planner

Search our weather history database for the weather conditions in past years. The results will help you decide how hot, cold, wet, or windy it might be!

Date:

Astronomy

Feb. 13, 2013 Rise Set
Actual Time 6:47 AM EST 5:21 PM EST
Civil Twilight 6:18 AM EST 5:50 PM EST
Nautical Twilight 5:46 AM EST 6:22 PM EST
Astronomical Twilight 5:14 AM EST 6:54 PM EST
Moon 8:12 AM EST (2/13) 9:25 PM EST (2/13)
Length of Visible Light 11h 31m
Length of Day
10h 34m
Waxing Crescent, 13% of the Moon is Illuminated
Feb 13
Waxing Crescent
Feb 17
First Quarter
Feb 25
Full
Mar 4
Last Quarter
Mar 11
New

Hourly Weather History & Observations

Time (EST) Temp. Windchill Dew Point Humidity Pressure Visibility Wind Dir Wind Speed Gust Speed Precip Events Conditions
12:15 AM 33.8 °F 30.8 °F 23.0 °F 65% 29.88 in 10.0 mi West 3.5 mph - N/A   Mostly Cloudy
12:35 AM 33.8 °F 30.8 °F 23.0 °F 65% 29.89 in 10.0 mi WNW 3.5 mph - N/A   Overcast
12:55 AM 32.0 °F - 23.0 °F 69% 29.89 in 10.0 mi Calm Calm - N/A   Overcast
1:35 AM 33.8 °F 29.6 °F 24.8 °F 70% 29.90 in 10.0 mi West 4.6 mph - N/A   Overcast
1:55 AM 33.8 °F 28.6 °F 23.0 °F 65% 29.91 in 10.0 mi West 5.8 mph - N/A   Overcast
2:15 AM 33.8 °F 30.8 °F 23.0 °F 65% 29.91 in 10.0 mi West 3.5 mph - N/A   Overcast
2:35 AM 32.0 °F 28.7 °F 24.8 °F 75% 29.90 in 10.0 mi West 3.5 mph - N/A   Overcast
2:55 AM 32.0 °F 28.7 °F 24.8 °F 75% 29.90 in 10.0 mi West 3.5 mph - N/A   Mostly Cloudy
3:15 AM 32.0 °F 28.7 °F 23.0 °F 69% 29.90 in 10.0 mi West 3.5 mph - N/A   Mostly Cloudy
3:35 AM 32.0 °F - 23.0 °F 69% 29.90 in 10.0 mi Calm Calm - N/A   Mostly Cloudy
3:55 AM 32.0 °F 27.5 °F 23.0 °F 69% 29.90 in 10.0 mi WNW 4.6 mph - N/A   Mostly Cloudy
4:15 AM 32.0 °F - 23.0 °F 69% 29.89 in 10.0 mi Calm Calm - N/A   Partly Cloudy
4:35 AM 32.0 °F 26.4 °F 23.0 °F 69% 29.88 in 10.0 mi NW 5.8 mph - N/A   Clear
4:55 AM 32.0 °F 26.4 °F 23.0 °F 69% 29.87 in 10.0 mi NW 5.8 mph - N/A   Clear
5:15 AM 32.0 °F 26.4 °F 23.0 °F 69% 29.87 in 10.0 mi NW 5.8 mph - N/A   Clear
5:35 AM 32.0 °F 27.5 °F 21.2 °F 64% 29.87 in 10.0 mi NW 4.6 mph - N/A   Clear
5:55 AM 32.0 °F 27.5 °F 21.2 °F 64% 29.87 in 10.0 mi NW 4.6 mph - N/A   Clear
6:15 AM 32.0 °F - 21.2 °F 64% 29.87 in 10.0 mi Calm Calm - N/A   Clear
6:35 AM 30.2 °F 26.7 °F 21.2 °F 69% 29.89 in 10.0 mi WSW 3.5 mph - N/A   Clear
6:55 AM 32.0 °F 28.7 °F 21.2 °F 64% 29.89 in 10.0 mi West 3.5 mph - N/A   Clear
7:15 AM 32.0 °F 28.7 °F 23.0 °F 69% 29.89 in 10.0 mi West 3.5 mph - N/A   Clear
7:35 AM 33.8 °F - 23.0 °F 65% 29.89 in 10.0 mi Calm Calm - N/A   Clear
7:55 AM 33.8 °F 30.8 °F 21.2 °F 60% 29.89 in 10.0 mi WNW 3.5 mph - N/A   Clear
8:15 AM 33.8 °F - 21.2 °F 60% 29.89 in 10.0 mi Calm Calm - N/A   Clear
8:35 AM 35.6 °F - 21.2 °F 56% 29.88 in 10.0 mi Calm Calm - N/A   Clear
8:55 AM 35.6 °F 32.8 °F 21.2 °F 56% 29.87 in 10.0 mi North 3.5 mph - N/A   Clear
9:15 AM 37.4 °F 32.8 °F 23.0 °F 56% 29.86 in 10.0 mi WNW 5.8 mph - N/A   Clear
9:35 AM 35.6 °F 32.8 °F 21.2 °F 56% 29.86 in 10.0 mi NW 3.5 mph - N/A   Clear
9:55 AM 37.4 °F - 23.0 °F 56% 29.86 in 10.0 mi Calm Calm - N/A   Clear
10:15 AM 37.4 °F 33.8 °F 21.2 °F 52% 29.85 in 10.0 mi WNW 4.6 mph - N/A   Clear
10:35 AM 37.4 °F - 21.2 °F 52% 29.85 in 10.0 mi Calm Calm - N/A   Clear
10:55 AM 39.2 °F 37.0 °F 21.2 °F 49% 29.86 in 10.0 mi West 3.5 mph - N/A   Clear
11:15 AM 39.2 °F 33.6 °F 21.2 °F 49% 29.85 in 10.0 mi SW 8.1 mph - N/A   Clear
11:35 AM 39.2 °F 34.2 °F 21.2 °F 49% 29.85 in 9.0 mi WSW 6.9 mph - N/A   Clear
11:55 AM 37.4 °F 30.8 °F 23.0 °F 56% 29.84 in 10.0 mi SSW 9.2 mph - N/A   Clear
12:15 PM 37.4 °F 30.8 °F 23.0 °F 56% 29.83 in 10.0 mi SSW 9.2 mph - N/A   Clear
12:35 PM 37.4 °F 31.4 °F 23.0 °F 56% 29.82 in 10.0 mi SSW 8.1 mph - N/A   Clear
12:55 PM 39.2 °F 35.9 °F 23.0 °F 52% 29.81 in 9.0 mi West 4.6 mph - N/A   Clear
1:15 PM 39.2 °F 35.9 °F 23.0 °F 52% 29.80 in 10.0 mi WSW 4.6 mph - N/A   Clear
1:35 PM 39.2 °F 37.0 °F 21.2 °F 49% 29.78 in 10.0 mi West 3.5 mph - N/A   Clear
1:55 PM 39.2 °F - 21.2 °F 49% 29.76 in 10.0 mi Calm Calm - N/A   Clear
2:15 PM 41.0 °F - 21.2 °F 45% 29.76 in 10.0 mi Calm Calm - N/A   Clear
2:35 PM 41.0 °F - 21.2 °F 45% 29.76 in 10.0 mi Calm Calm - N/A   Clear
2:55 PM 41.0 °F - 21.2 °F 45% 29.76 in 10.0 mi Calm Calm - N/A   Clear
3:15 PM 41.0 °F - 21.2 °F 45% 29.75 in 10.0 mi Calm Calm - N/A   Clear
3:35 PM 39.2 °F 35.0 °F 23.0 °F 52% 29.75 in 10.0 mi SSW 5.8 mph - N/A   Clear
3:55 PM 37.4 °F 29.8 °F 23.0 °F 56% 29.75 in 10.0 mi South 11.5 mph - N/A   Clear
4:35 PM 35.6 °F 32.8 °F 23.0 °F 60% 29.74 in 10.0 mi SSW 3.5 mph - N/A   Clear
4:55 PM 35.6 °F - 23.0 °F 60% 29.73 in 10.0 mi Calm Calm - N/A   Clear
5:15 PM 35.6 °F - 23.0 °F 60% 29.73 in 10.0 mi Calm Calm - N/A   Clear
5:35 PM 35.6 °F - 23.0 °F 60% 29.71 in 10.0 mi Calm Calm - N/A   Clear
5:55 PM 35.6 °F - 23.0 °F 60% 29.71 in 10.0 mi Calm Calm - N/A   Clear
6:15 PM 33.8 °F - 24.8 °F 70% 29.72 in 10.0 mi Calm Calm - N/A   Mostly Cloudy
6:35 PM 35.6 °F 32.8 °F 24.8 °F 65% 29.71 in 10.0 mi North 3.5 mph - N/A   Mostly Cloudy
6:55 PM 35.6 °F - 24.8 °F 65% 29.70 in 10.0 mi Calm Calm - N/A   Partly Cloudy
7:15 PM 33.8 °F - 24.8 °F 70% 29.70 in 10.0 mi Calm Calm - N/A   Clear
7:35 PM 33.8 °F 30.8 °F 24.8 °F 70% 29.70 in 10.0 mi North 3.5 mph - N/A   Partly Cloudy
7:55 PM 33.8 °F 30.8 °F 24.8 °F 70% 29.71 in 10.0 mi North 3.5 mph - N/A   Clear
8:15 PM 33.8 °F - 24.8 °F 70% 29.70 in 10.0 mi Calm Calm - N/A   Clear
8:35 PM 33.8 °F - 26.6 °F 75% 29.71 in 10.0 mi Calm Calm - N/A   Clear
8:55 PM 33.8 °F 29.6 °F 26.6 °F 75% 29.70 in 10.0 mi North 4.6 mph - N/A   Partly Cloudy
9:15 PM 33.8 °F 29.6 °F 23.0 °F 65% 29.69 in 10.0 mi North 4.6 mph - N/A   Clear
9:35 PM 33.8 °F 29.6 °F 24.8 °F 70% 29.69 in 10.0 mi NNW 4.6 mph - N/A   Clear
9:55 PM 33.8 °F 27.7 °F 23.0 °F 65% 29.67 in 10.0 mi North 6.9 mph - N/A   Clear
10:15 PM 35.6 °F 29.9 °F 23.0 °F 60% 29.68 in 10.0 mi North 6.9 mph - N/A   Clear
10:35 PM 35.6 °F 30.7 °F 23.0 °F 60% 29.70 in 10.0 mi North 5.8 mph - N/A   Scattered Clouds
10:55 PM 35.6 °F 29.2 °F 24.8 °F 65% 29.70 in 10.0 mi North 8.1 mph - N/A   Mostly Cloudy
11:15 PM 35.6 °F 29.9 °F 26.6 °F 70% 29.72 in 5.0 mi North 6.9 mph - N/A Snow Light Snow
11:35 PM 35.6 °F 29.9 °F 28.4 °F 75% 29.72 in 4.0 mi NNE 6.9 mph - 0.03 in Snow Light Snow
11:55 PM 33.8 °F 29.6 °F 28.4 °F 81% 29.71 in 5.0 mi ENE 4.6 mph - 0.06 in Snow Light Snow